GFSNIL_prec_cthk_114.txt.gz
RH
31 32 31 31 30 26 23 24 28 44 41 95 43 42 49 61 54 53 62 64 65 75
35 37 38 39 38 36 30 24 29 39 48 43 55 45 43 46 57 59 61 72 71 71
43 44 46 49 52 53 45 38 33 36 48 46 46 51 43 45 58 67 68 71 75 75
51 56 59 68 73 71 65 53 40 38 46 50 56 55 51 48 60 71 72 74 74 72
66 74 77 80 84 78 71 62 47 45 51 55 65 65 59 53 65 70 79 77 80 75
95 94 90 89 87 89 85 76 75 72 73 68 70 86 58 54 64 62 67 71 71 76
97 94 92 96 94 90 91 86 87 81 85 92 83 78 62 61 65 68 71 77 79 79
94 93 97 96 98 95 98 95 97 88 97 92 94 88 61 66 67 68 78 81 80 73
95 92 93 96 98 97 98 98 93 91 96 92 84 80 73 74 77 77 79 81 79 77
96 94 95 96 98 97 98 98 95 99 97 95 90 83 81 85 83 84 88 90 92 90
97 97 97 97 98 98 98 98 99 98 98 96 95 94 93 90 91 91 93 92 99 96
97 97 97 97 97 97 98 98 98 99 98 97 98 98 98 97 98 97 97 98 95 97
96 97 97 96 96 96 97 97 98 96 96 98 98 99 98 96 98 98 96 98 97 99
93 96 97 97 97 97 97 97 96 97 96 97 98 98 98 98 98 98 98 98 98 99

GFSNIL_prec_cthk_117.txt.gz
RH
24 25 26 26 26 24 23 21 18 17 19 23 37 36 42 82 82 71 58 63 65 70
25 27 28 28 28 27 26 24 24 23 20 19 27 40 38 48 79 81 57 59 63 63
30 32 34 35 35 36 36 36 35 34 32 27 23 36 44 36 44 64 64 61 62 62
39 39 41 42 42 45 46 47 50 52 52 46 34 28 41 41 41 62 66 67 56 58
45 48 49 52 54 59 65 70 72 70 68 63 56 35 40 38 46 59 70 58 52 62
55 57 59 63 67 85 83 82 85 84 81 67 56 47 45 45 56 59 61 60 56 64
70 75 77 81 91 88 86 89 90 89 89 78 71 61 55 68 71 77 77 69 68 69
95 97 96 96 94 91 90 92 92 95 96 95 85 79 75 80 85 89 85 71 73 70
97 97 98 95 94 93 93 93 93 96 94 94 93 87 86 95 94 95 85 73 72 72
97 98 99 98 96 95 95 95 94 97 97 94 94 87 88 87 99 84 83 80 83 81
98 98 98 98 97 98 98 99 98 96 98 93 94 99 94 87 94 85 84 87 84 87
97 98 97 97 97 97 98 98 98 98 98 97 98 94 92 96 89 94 90 97 90 94
93 96 97 97 97 97 97 97 97 97 97 98 97 98 95 98 96 98 99 98 97 99
43 43 44 53 69 89 96 96 96 94 96 96 96 97 97 98 99 99 98 98 98 97

GFSNIL_prec_cthk_120.txt.gz
RH
23 22 22 23 22 21 21 21 20 20 19 19 20 19 23 35 41 40 45 51 65 72
27 26 27 28 28 26 26 25 24 23 22 21 20 22 22 23 34 42 38 37 60 83
31 31 31 31 31 31 31 31 31 30 27 25 24 24 26 23 22 35 39 37 45 60
34 33 34 35 37 38 38 39 38 38 37 34 33 34 33 30 27 28 37 36 40 52
35 37 37 39 42 43 43 44 43 47 47 47 46 44 44 43 39 32 34 34 42 47
44 46 49 51 52 53 53 53 54 54 55 60 63 62 60 60 57 52 41 35 45 42
56 58 60 64 67 67 68 68 65 65 72 76 77 77 76 79 69 62 56 44 51 48
68 77 83 87 91 91 88 85 86 87 85 83 85 87 90 85 71 64 47 60 57 59
89 92 95 97 97 98 97 95 91 91 90 88 90 94 97 91 84 74 60 68 74 79
95 96 96 97 97 97 97 97 94 94 91 94 97 98 94 94 84 84 80 88 91 95
96 97 97 97 97 97 97 97 98 97 94 96 98 97 96 96 88 91 87 98 96 98
85 95 97 97 97 97 97 97 97 97 97 98 98 98 98 96 92 88 95 98 97 99
44 43 44 50 67 89 96 97 97 97 97 97 97 97 98 95 96 98 98 98 93 88
28 29 28 29 30 32 38 42 56 81 93 96 96 97 97 97 97 98 97 98 97 95

GFSNIL_prec_cthk_126.txt.gz
RH
58 54 56 57 47 41 39 33 29 29 28 28 26 23 23 22 21 21 22 22 26 36
62 61 61 57 51 49 43 36 33 32 30 28 29 29 28 27 24 23 21 22 22 26
54 63 69 63 52 45 39 36 38 38 35 33 33 34 33 32 31 29 26 24 23 23
47 48 48 45 43 43 44 44 41 39 43 42 39 39 37 37 36 37 35 33 29 26
52 54 52 50 48 45 46 48 48 46 45 43 45 46 43 39 38 38 40 40 39 36
57 56 55 51 50 51 55 55 53 53 52 50 47 46 48 48 44 43 41 41 43 41
63 63 59 57 61 64 64 65 65 65 65 63 61 57 53 51 51 48 45 45 47 47
71 68 72 74 74 75 77 84 85 85 84 82 77 74 69 61 57 55 50 53 54 53
80 85 84 85 87 91 89 92 92 91 89 90 93 87 88 81 73 68 64 64 67 69
61 67 66 78 89 94 94 96 95 94 94 96 97 97 98 93 88 84 82 82 84 89
49 45 46 46 47 49 57 77 95 97 96 97 96 97 97 98 98 98 98 99 99 99
39 40 35 35 34 32 32 35 42 49 72 92 97 97 97 97 97 98 98 98 98 98
35 31 27 25 25 27 27 27 25 26 33 40 48 66 85 96 97 97 97 97 98 98
31 25 17 14 13 14 18 22 23 23 24 25 27 33 35 42 58 80 94 97 96 96

GFSNIL_prec_cthk_132.txt.gz
RH
50 50 49 54 56 53 49 50 59 63 62 62 58 54 53 53 51 43 39 35 27 24
46 50 50 55 53 51 51 50 52 51 62 61 61 58 57 56 54 51 48 39 33 32
42 48 50 48 49 49 51 53 50 48 50 52 59 60 58 53 46 41 39 36 35 36
47 49 51 52 52 54 53 55 57 55 54 52 50 47 46 43 42 42 40 41 39 37
55 58 59 60 60 60 60 59 59 59 57 56 54 51 49 47 47 46 48 48 41 40
59 62 66 68 70 69 68 66 63 61 59 57 56 56 54 53 52 51 50 50 47 43
45 52 58 61 67 71 74 75 72 69 68 65 62 62 62 61 66 66 62 56 53 50
44 42 42 44 47 53 58 63 67 72 72 72 72 72 74 77 77 76 79 77 72 63
36 43 41 35 33 33 37 38 43 54 67 77 79 81 83 83 83 84 87 90 89 84
39 37 35 33 37 37 36 36 37 38 41 45 54 75 89 92 92 92 95 96 97 97
36 38 47 40 37 39 36 37 34 33 34 34 39 44 44 62 89 96 97 97 97 94
51 52 38 34 32 32 31 35 33 34 31 32 32 37 41 37 44 52 75 95 97 97
47 37 33 31 31 29 27 25 24 26 29 28 32 30 29 36 35 39 41 43 59 75
46 33 32 31 26 23 23 25 22 20 19 21 25 24 26 25 26 30 31 35 35 37